Regional Weather Roundup
Issued by NWS Memphis, TN

Home | Current Version | Previous Version | Text Only | Print | Product List | Glossary On
Versions: 1 2 3 4 5 6 7 8 9 10 11 12 13 14 15 16 17 18 19 20 21 22 23 24 25 26 27 28 29 30 31 32 33 34 35 36 37 38 39 40 41 42 43 44 45 46 47 48 49 50
000
ASUS44 KMEG 281010
RWRMEG
MEMPHIS CWA HOURLY WEATHER ROUNDUP
NATIONAL WEATHER SERVICE MEMPHIS TN
500 AM CDT TUE APR 28 2015

...WEST TENNESSEE...

CITY           SKY/WX    TMP DP  RH WIND       PRES   REMARKS
MEMPHIS INTL   CLOUDY    55  40  56 NE8       29.98R
NWS MEMPHIS      N/A     53 N/A N/A MISG        N/A
JACKSON        MOCLDY    48  41  76 NE7       29.97F
LEXINGTON      CLEAR     46  39  76 NE6       29.95F
SAVANNAH       CLEAR     41  32  70 CALM      29.95F
DYERSBURG      CLOUDY    50  30  46 NE8       30.01S
UNION CITY     CLEAR     46  32  57 NE6       30.00F
PARIS          CLEAR     41  37  87 NE5       30.00F


...EASTERN ARKANSAS...

CITY           SKY/WX    TMP DP  RH WIND       PRES   REMARKS
JONESBORO      CLOUDY    51  42  71 NE8       30.02R
WEST MEMPHIS   CLOUDY    53  43  68 NE8       29.98R
BATESVILLE     CLOUDY    52  39  62 CALM      30.04S
NEWPORT        CLOUDY    51  45  80 N9        30.05R
WALNUT RIDGE   CLOUDY    48  39  71 NE5       30.04R
BLYTHEVILLE    CLOUDY    52  42  69 NE9       30.01S
SEARCY         CLOUDY    55  43  63 N8        30.03F
STUTTGART      CLOUDY    55  43  62 N10       29.99S
PINE BLUFF     CLOUDY    56  44  64 N13       29.97S
MONTICELLO     CLOUDY    57  44  62 VRB6      29.93S


...NORTH MISSISSIPPI...

CITY           SKY/WX    TMP DP  RH WIND       PRES   REMARKS
TUPELO         CLEAR     47  41  80 NE10      29.91S
OXFORD         CLEAR     46  39  76 NE5       29.94S
OLIVE BRANCH   CLEAR     50  45  81 NE9       29.97R
TUNICA         CLOUDY    52  45  76 N8        29.97S
CLARKSDALE     CLOUDY    54  43  66 N10       29.95S
CORINTH        CLEAR     48  41  76 NE7       29.94S
GREENWOOD      CLEAR     50  44  80 N7        29.89S
COLUMBUS       CLEAR     47  43  85 N6        29.87S
STARKVILLE     FAIR      50  45  81 N3        29.88S
GOLDEN TRIANGL CLEAR     48  43  81 N5        29.86F


...SOUTHEAST MISSOURI...

CITY           SKY/WX    TMP DP  RH WIND       PRES   REMARKS
WEST PLAINS    PTCLDY    45  36  70 NE3       30.07R
POPLAR BLUFF   PTCLDY    47  38  71 CALM      30.02F
CAPE GIRARDEAU CLEAR     46  37  71 NE9       30.04F


...NORTHWEST ALABAMA...

CITY           SKY/WX    TMP DP  RH WIND       PRES   REMARKS
MUSCLE SHOALS  CLEAR     46  39  76 NE3       29.95S


...MIDDLE TENNESSEE...

CITY           SKY/WX    TMP DP  RH WIND       PRES   REMARKS
NASHVILLE      CLEAR     46  40  79 N7        29.99R
CLARKSVILLE    CLEAR     46  39  76 NE6       30.01R
COLUMBIA       CLEAR     39  32  75 SW3       29.95S


...WESTERN KENTUCKY...

CITY           SKY/WX    TMP DP  RH WIND       PRES   REMARKS
PADUCAH        CLEAR     44  39  82 NE5       30.03R
FORT CAMPBELL  CLEAR     42  39  89 NE6       30.01R


...CENTRAL ARKANSAS...

CITY           SKY/WX    TMP DP  RH WIND       PRES   REMARKS
LITTLE ROCK    CLOUDY    56  43  61 N7        30.00F


SKY/WX REPORTED AS FAIR MEANS FEW OR NO CLOUDS BELOW
12 THOUSAND FEET.




USA.gov is the U.S. government's official web portal to all federal, state and local government web resources and services.